When you browse on this site, cookies collect data to enhance your experience and personalize the content and advertising you see.
Visit our Privacy Policy to learn more. By continuing to use the site, you agree to this use of cookies and data.
  • în România
  • Lista ţărilor
  • Pe 7 zile
  • Temperatura apei
  • Meteo pe hartă
  • Widget-uri
  • user-avatar
    Intrare

    Meteo pe oră la San Sebastian

    Astăzi, 13 Noiembrie, Miercuri

    Timp Temperatura Precipitaţii Vânt Presiune Umiditate
    00:00 +7°C° 0.1 mm 2 m/s 725 mmHg 90%
    01:00 +7°C° 0 mm 2 m/s 725 mmHg 90%
    02:00 +7°C° 0 mm 1 m/s 725 mmHg 90%
    03:00 +7°C° 0 mm 1 m/s 724 mmHg 91%
    04:00 +7°C° 0 mm 1 m/s 725 mmHg 91%
    05:00 +7°C° 0 mm 1 m/s 725 mmHg 91%
    06:00 +8°C° 0 mm 1 m/s 725 mmHg 91%
    07:00 +8°C° 0.1 mm 1 m/s 725 mmHg 92%
    08:00 +8°C° 0.1 mm 1 m/s 726 mmHg 92%
    09:00 +7°C° 0.1 mm 2 m/s 726 mmHg 93%
    10:00 +8°C° 0.1 mm 3 m/s 726 mmHg 89%
    11:00 +8°C° 0.1 mm 3 m/s 726 mmHg 86%
    12:00 +8°C° 0.1 mm 4 m/s 727 mmHg 83%
    13:00 +8°C° 0.2 mm 4 m/s 727 mmHg 80%
    14:00 +8°C° 0.2 mm 4 m/s 726 mmHg 77%
    15:00 +8°C° 0.2 mm 4 m/s 726 mmHg 74%
    16:00 +8°C° 0 mm 3 m/s 727 mmHg 78%
    17:00 +7°C° 0 mm 3 m/s 727 mmHg 82%
    18:00 +6°C° 0 mm 2 m/s 727 mmHg 87%
    19:00 +6°C° 0 mm 2 m/s 727 mmHg 87%
    20:00 +7°C° 0 mm 1 m/s 727 mmHg 88%
    21:00 +6°C° 0 mm 1 m/s 726 mmHg 88%
    22:00 +5°C° 0 mm 2 m/s 726 mmHg 85%
    23:00 +5°C° 0 mm 2 m/s 725 mmHg 82%

    Mâine, 14 Noiembrie, Joi

    Timp Temperatura Precipitaţii Vânt Presiune Umiditate
    00:00 +5°C° 0 mm 2 m/s 724 mmHg 79%
    01:00 +5°C° 0 mm 2 m/s 724 mmHg 78%
    02:00 +5°C° 0 mm 2 m/s 723 mmHg 77%
    03:00 +5°C° 0 mm 2 m/s 723 mmHg 76%
    04:00 +5°C° 1.3 mm 2 m/s 723 mmHg 82%
    05:00 +5°C° 1.3 mm 2 m/s 722 mmHg 88%
    06:00 +5°C° 1.3 mm 2 m/s 722 mmHg 95%
    07:00 +4°C° 1.8 mm 2 m/s 722 mmHg 95%
    08:00 +4°C° 1.8 mm 2 m/s 722 mmHg 94%
    09:00 +4°C° 1.8 mm 2 m/s 722 mmHg 94%
    10:00 +5°C° 0.5 mm 1 m/s 721 mmHg 92%
    11:00 +6°C° 0.5 mm 1 m/s 721 mmHg 89%
    12:00 +6°C° 0.5 mm 1 m/s 721 mmHg 87%
    13:00 +6°C° 0.2 mm 1 m/s 721 mmHg 86%
    14:00 +6°C° 0.2 mm 1 m/s 720 mmHg 86%
    15:00 +5°C° 0.2 mm 0 m/s 720 mmHg 86%
    16:00 +6°C° 0.6 mm 1 m/s 720 mmHg 88%
    17:00 +4°C° 0.6 mm 2 m/s 720 mmHg 91%
    18:00 +4°C° 0.6 mm 2 m/s 721 mmHg 93%
    19:00 +4°C° 0.3 mm 2 m/s 721 mmHg 93%
    20:00 +3°C° 0.3 mm 2 m/s 721 mmHg 92%
    21:00 +3°C° 0.3 mm 2 m/s 721 mmHg 91%
    22:00 +3°C° 0 mm 2 m/s 721 mmHg 89%
    23:00 +2°C° 0 mm 2 m/s 722 mmHg 87%

    Poimâine, 15 Noiembrie, Vineri

    Timp Temperatura Precipitaţii Vânt Presiune Umiditate
    00:00 +2°C° 0 mm 2 m/s 722 mmHg 85%
    01:00 +2°C° 0 mm 2 m/s 722 mmHg 84%
    02:00 +1°C° 0 mm 2 m/s 722 mmHg 83%
    03:00 +2°C° 0 mm 1 m/s 722 mmHg 81%
    04:00 +1°C° 0 mm 2 m/s 722 mmHg 81%
    05:00 +1°C° 0 mm 2 m/s 722 mmHg 80%
    06:00 +1°C° 0 mm 2 m/s 722 mmHg 79%
    07:00 +3°C° 0 mm 1 m/s 723 mmHg 75%
    08:00 +4°C° 0 mm 1 m/s 723 mmHg 72%
    09:00 +5°C° 0 mm 1 m/s 723 mmHg 69%
    10:00 +6°C° 0.1 mm 1 m/s 723 mmHg 67%
    11:00 +6°C° 0.1 mm 2 m/s 723 mmHg 66%
    12:00 +8°C° 0.1 mm 2 m/s 723 mmHg 65%
    13:00 +7°C° 0.3 mm 2 m/s 723 mmHg 69%
    14:00 +7°C° 0.3 mm 2 m/s 722 mmHg 74%
    15:00 +6°C° 0.3 mm 2 m/s 722 mmHg 79%
    16:00 +6°C° 0.1 mm 2 m/s 723 mmHg 81%
    17:00 +5°C° 0.1 mm 2 m/s 723 mmHg 83%
    18:00 +4°C° 0.1 mm 2 m/s 723 mmHg 85%
    19:00 +4°C° 0.1 mm 2 m/s 724 mmHg 85%
    20:00 +4°C° 0.1 mm 2 m/s 725 mmHg 85%
    21:00 +4°C° 0.1 mm 2 m/s 725 mmHg 85%
    22:00 +4°C° 0.1 mm 2 m/s 726 mmHg 87%
    23:00 +2°C° 0.1 mm 3 m/s 726 mmHg 89%

    16 Noiembrie, Sâmbătă

    Timp Temperatura Precipitaţii Vânt Presiune Umiditate
    00:00 +2°C° 0.1 mm 3 m/s 727 mmHg 90%
    01:00 +2°C° 0 mm 3 m/s 727 mmHg 90%
    02:00 +1°C° 0 mm 3 m/s 727 mmHg 89%
    03:00 +1°C° 0 mm 3 m/s 728 mmHg 89%
    04:00 +1°C° 0 mm 3 m/s 728 mmHg 88%
    05:00 +1°C° 0 mm 3 m/s 729 mmHg 88%
    06:00 +1°C° 0 mm 2 m/s 729 mmHg 87%
    07:00 +2°C° 0 mm 2 m/s 730 mmHg 83%
    08:00 +3°C° 0 mm 2 m/s 730 mmHg 78%
    09:00 +4°C° 0 mm 2 m/s 731 mmHg 73%
    10:00 +5°C° 0 mm 3 m/s 731 mmHg 70%
    11:00 +7°C° 0 mm 3 m/s 731 mmHg 67%
    12:00 +8°C° 0 mm 3 m/s 731 mmHg 64%
    13:00 +8°C° 0 mm 3 m/s 731 mmHg 64%
    14:00 +8°C° 0 mm 3 m/s 731 mmHg 64%
    15:00 +8°C° 0 mm 2 m/s 731 mmHg 64%
    16:00 +6°C° 0 mm 2 m/s 731 mmHg 70%
    17:00 +5°C° 0 mm 2 m/s 731 mmHg 75%
    18:00 +3°C° 0 mm 2 m/s 731 mmHg 81%
    19:00 +3°C° 0 mm 2 m/s 731 mmHg 81%
    20:00 +2°C° 0 mm 2 m/s 731 mmHg 80%
    21:00 +2°C° 0 mm 2 m/s 731 mmHg 80%
    22:00 +2°C° 0 mm 2 m/s 730 mmHg 77%
    23:00 +2°C° 0 mm 2 m/s 730 mmHg 74%

    17 Noiembrie, Duminică

    Timp Temperatura Precipitaţii Vânt Presiune Umiditate
    00:00 +1°C° 0 mm 2 m/s 729 mmHg 70%
    01:00 +1°C° 0 mm 2 m/s 729 mmHg 69%
    02:00 +1°C° 0 mm 2 m/s 728 mmHg 68%
    03:00 +2°C° 0 mm 1 m/s 727 mmHg 67%
    04:00 +2°C° 0 mm 1 m/s 727 mmHg 67%
    05:00 +2°C° 0 mm 1 m/s 727 mmHg 67%
    06:00 +2°C° 0 mm 1 m/s 726 mmHg 67%
    07:00 +3°C° 0 mm 1 m/s 727 mmHg 64%
    08:00 +5°C° 0 mm 1 m/s 727 mmHg 61%
    09:00 +6°C° 0 mm 1 m/s 727 mmHg 58%
    10:00 +8°C° 0 mm 1 m/s 726 mmHg 55%
    11:00 +9°C° 0 mm 1 m/s 726 mmHg 52%
    12:00 +10°C° 0 mm 1 m/s 726 mmHg 49%
    13:00 +9°C° 0 mm 2 m/s 725 mmHg 54%
    14:00 +9°C° 0 mm 2 m/s 725 mmHg 58%
    15:00 +8°C° 0 mm 3 m/s 725 mmHg 62%
    16:00 +7°C° 0 mm 2 m/s 725 mmHg 70%
    17:00 +7°C° 0 mm 1 m/s 725 mmHg 77%
    18:00 +6°C° 0 mm 1 m/s 725 mmHg 85%
    19:00 +6°C° 0 mm 1 m/s 725 mmHg 84%
    20:00 +7°C° 0 mm 1 m/s 725 mmHg 83%
    21:00 +7°C° 0 mm 1 m/s 726 mmHg 83%
    22:00 +7°C° 0.2 mm 1 m/s 726 mmHg 85%
    23:00 +7°C° 0.2 mm 1 m/s 725 mmHg 87%

    18 Noiembrie, Luni

    Timp Temperatura Precipitaţii Vânt Presiune Umiditate
    00:00 +6°C° 0.2 mm 2 m/s 725 mmHg 90%
    01:00 +7°C° 0 mm 1 m/s 725 mmHg 90%
    02:00 +7°C° 0 mm 1 m/s 725 mmHg 90%
    03:00 +7°C° 0 mm 1 m/s 725 mmHg 91%
    04:00 +7°C° 0.1 mm 1 m/s 726 mmHg 91%
    05:00 +6°C° 0.1 mm 1 m/s 726 mmHg 91%
    06:00 +6°C° 0.1 mm 1 m/s 726 mmHg 91%
    07:00 +7°C° 0.4 mm 1 m/s 727 mmHg 91%
    08:00 +6°C° 0.4 mm 2 m/s 727 mmHg 91%
    09:00 +6°C° 0.4 mm 2 m/s 728 mmHg 91%
    10:00 +7°C° 0.2 mm 3 m/s 728 mmHg 90%
    11:00 +7°C° 0.2 mm 3 m/s 728 mmHg 89%
    12:00 +6°C° 0.2 mm 4 m/s 728 mmHg 88%
    13:00 +7°C° 0.4 mm 3 m/s 728 mmHg 89%
    14:00 +7°C° 0.4 mm 3 m/s 728 mmHg 91%
    15:00 +7°C° 0.4 mm 3 m/s 728 mmHg 93%
    16:00 +7°C° 0.5 mm 3 m/s 729 mmHg 93%
    17:00 +5°C° 0.5 mm 3 m/s 729 mmHg 93%
    18:00 +6°C° 0.5 mm 2 m/s 730 mmHg 94%
    19:00 +5°C° 0 mm 2 m/s 730 mmHg 94%
    20:00 +5°C° 0 mm 2 m/s 730 mmHg 93%
    21:00 +5°C° 0 mm 1 m/s 730 mmHg 93%
    22:00 +5°C° 0 mm 1 m/s 730 mmHg 92%
    23:00 +4°C° 0 mm 1 m/s 730 mmHg 91%
    Arată mai mult